GW1476 Weather Reports


time (UTC)temp
C
wind
direction
speed
KPH
gust
KPH
rain 1hr
cm
rain 24hr
cm
rain mn
cm
humidity
%
barometer
mb
20260509002713 16 203 0.0 0.0 0.00 0.00 0.00 65 1013.5
20260509002119 16 225 3.2 3.2 0.00 0.00 0.00 63 1013.2
20260509001537 17 203 0.0 0.0 0.00 0.00 0.00 61 1013.5
20260509000941 17 225 1.6 3.2 0.00 0.00 0.00 57 1013.5
20260509000311 18 113 0.0 4.8 0.00 0.00 0.00 57 1013.5
20260508235713 18 225 0.0 3.2 0.00 0.00 0.00 57 1013.5
20260508235117 18 203 1.6 4.8 0.00 0.00 0.00 55 1013.5
20260508234534 19 270 3.2 3.2 0.00 0.00 0.00 51 1013.5
20260508233914 21 225 1.6 4.8 0.00 0.00 0.00 49 1013.5
20260508233309 22 180 6.4 6.4 0.00 0.00 0.00 43 1013.8
20260508232725 23 248 0.0 6.4 0.00 0.00 0.00 38 1013.8
20260508232135 23 225 6.4 6.4 0.00 0.00 0.00 38 1013.5
20260508231513 24 45 1.6 6.4 0.00 0.00 0.00 38 1013.5
20260508230947 24 0 6.4 6.4 0.00 0.00 0.00 38 1013.5
20260508230323 23 0 3.2 6.4 0.00 0.00 0.00 38 1013.5
20260508225749 22 0 0.0 3.2 0.00 0.00 0.00 40 1013.5
20260508225148 23 338 8.0 8.0 0.00 0.00 0.00 39 1013.5
20260508224518 23 315 4.8 4.8 0.00 0.00 0.00 38 1013.5
20260508223947 23 90 6.4 6.4 0.00 0.00 0.00 39 1013.5
20260508223318 23 315 3.2 6.4 0.00 0.00 0.00 40 1013.5
20260508222127 23 315 4.8 6.4 0.00 0.00 0.00 39 1013.5
20260508221541 23 248 4.8 4.8 0.00 0.00 0.00 41 1013.5
20260508220935 23 180 4.8 6.4 0.00 0.00 0.00 40 1013.5
20260508220310 23 68 3.2 6.4 0.00 0.00 0.00 39 1013.5
20260508215732 23 23 4.8 8.0 0.00 0.00 0.00 38 1013.5
20260508214546 23 0 11.3 11.3 0.00 0.00 0.00 38 1013.5
20260508213913 23 338 8.0 8.0 0.00 0.00 0.00 39 1013.5
20260508212116 23 0 11.3 11.3 0.00 0.00 0.00 40 1013.5
20260508211515 23 23 6.4 6.4 0.00 0.00 0.00 41 1013.5
20260508210918 23 23 9.7 11.3 0.00 0.00 0.00 40 1013.5
20260508210319 22 23 4.8 8.0 0.00 0.00 0.00 41 1013.8
20260508205739 23 0 8.0 8.0 0.00 0.00 0.00 41 1013.8
20260508205124 23 248 6.4 6.4 0.00 0.00 0.00 41 1013.8
20260508204551 23 203 3.2 4.8 0.00 0.00 0.00 40 1014.2
20260508203919 23 203 1.6 8.0 0.00 0.00 0.00 39 1014.2
20260508203320 23 203 6.4 6.4 0.00 0.00 0.00 40 1014.5
20260508202734 23 68 4.8 8.0 0.00 0.00 0.00 41 1014.5
20260508202114 23 225 4.8 8.0 0.00 0.00 0.00 38 1014.5
20260508201518 23 0 4.8 4.8 0.00 0.00 0.00 39 1014.9
20260508200949 23 203 3.2 11.3 0.00 0.00 0.00 39 1014.9
20260508200343 23 23 3.2 12.9 0.00 0.00 0.00 39 1014.9
20260508195740 23 90 6.4 6.4 0.00 0.00 0.00 38 1015.2
20260508195133 23 203 6.4 11.3 0.00 0.00 0.00 40 1015.2
20260508194552 23 0 11.3 11.3 0.00 0.00 0.00 38 1015.2
20260508193931 23 68 1.6 11.3 0.00 0.00 0.00 39 1015.5
20260508193322 23 113 6.4 6.4 0.00 0.00 0.00 41 1015.5
20260508192726 23 180 4.8 4.8 0.00 0.00 0.00 41 1015.5
20260508192146 23 315 3.2 8.0 0.00 0.00 0.00 38 1015.5
20260508191549 23 68 3.2 4.8 0.00 0.00 0.00 41 1015.5
20260508190935 23 68 4.8 6.4 0.00 0.00 0.00 40 1016.2
20260508190343 23 203 1.6 4.8 0.00 0.00 0.00 41 1016.2
20260508185114 23 315 1.6 6.4 0.00 0.00 0.00 38 1016.2
20260508184545 23 45 4.8 4.8 0.00 0.00 0.00 38 1016.2
20260508183943 24 23 12.9 12.9 0.00 0.00 0.00 37 1016.5
20260508183338 23 45 3.2 8.0 0.00 0.00 0.00 38 1016.5
20260508182736 23 248 4.8 4.8 0.00 0.00 0.00 42 1016.5
20260508181532 22 113 3.2 3.2 0.00 0.00 0.00 42 1016.9
20260508180921 22 158 1.6 12.9 0.00 0.00 0.00 43 1016.9
20260508180349 22 203 8.0 8.0 0.00 0.00 0.00 46 1017.2
20260508175740 21 45 4.8 9.7 0.00 0.00 0.00 44 1017.2
20260508175143 21 180 6.4 6.4 0.00 0.00 0.00 45 1017.2
20260508174511 21 23 8.0 8.0 0.00 0.00 0.00 43 1017.2
20260508173923 22 338 14.5 17.7 0.00 0.00 0.00 42 1017.2
20260508173320 21 23 9.7 9.7 0.00 0.00 0.00 45 1017.2
20260508172740 22 315 4.8 6.4 0.00 0.00 0.00 44 1017.2
20260508172148 21 315 3.2 6.4 0.00 0.00 0.00 43 1017.6
20260508170940 21 158 4.8 9.7 0.00 0.00 0.00 44 1017.6
20260508170314 22 248 6.4 11.3 0.00 0.00 0.00 44 1017.9
20260508165709 21 158 6.4 6.4 0.00 0.00 0.00 44 1017.9
20260508165120 21 113 4.8 6.4 0.00 0.00 0.00 46 1018.2
20260508164533 21 293 1.6 1.6 0.00 0.00 0.00 45 1018.2
20260508163331 21 0 6.4 8.0 0.00 0.00 0.00 44 1018.6
20260508162723 21 338 4.8 8.0 0.00 0.00 0.00 42 1018.6
20260508162130 21 203 1.6 6.4 0.00 0.00 0.00 45 1018.6
20260508161515 21 23 11.3 12.9 0.00 0.00 0.00 41 1018.6
20260508160931 20 0 4.8 8.0 0.00 0.00 0.00 43 1018.6
20260508160338 20 293 1.6 9.7 0.00 0.00 0.00 42 1018.6
20260508155110 20 45 4.8 8.0 0.00 0.00 0.00 43 1018.9
20260508154521 20 270 3.2 4.8 0.00 0.00 0.00 43 1018.9
20260508153937 20 45 3.2 6.4 0.00 0.00 0.00 45 1018.9
20260508153342 20 90 3.2 6.4 0.00 0.00 0.00 46 1018.9
20260508152746 19 0 3.2 6.4 0.00 0.00 0.00 48 1018.9
20260508151536 20 23 8.0 8.0 0.00 0.00 0.00 48 1018.9
20260508150945 20 23 3.2 3.2 0.00 0.00 0.00 50 1018.9
20260508145746 18 248 3.2 4.8 0.00 0.00 0.00 53 1018.9
20260508145148 18 23 1.6 4.8 0.00 0.00 0.00 52 1019.3
20260508143942 17 203 4.8 4.8 0.00 0.00 0.00 56 1019.3
20260508142727 17 180 4.8 6.4 0.00 0.00 0.00 58 1018.9
20260508142148 16 293 3.2 3.2 0.00 0.00 0.00 61 1019.3
20260508141518 17 225 4.8 4.8 0.00 0.00 0.00 61 1019.3
20260508140935 16 23 4.8 6.4 0.00 0.00 0.00 62 1019.3
20260508135748 16 270 3.2 3.2 0.00 0.00 0.00 65 1019.6
20260508135145 14 225 0.0 0.0 0.00 0.00 0.00 74 1019.6
20260508134522 13 45 0.0 0.0 0.00 0.00 0.00 74 1019.6
20260508133915 13 45 0.0 1.6 0.00 0.00 0.00 75 1019.6
20260508133312 13 90 0.0 3.2 0.00 0.00 0.00 76 1019.6
20260508132726 12 180 0.0 1.6 0.00 0.00 0.00 77 1019.6
20260508132122 11 135 0.0 0.0 0.00 0.00 0.00 80 1019.6
20260508130308 10 338 0.0 0.0 0.00 0.00 0.00 84 1019.6
20260508125126 10 270 0.0 1.6 0.00 0.00 0.00 90 1019.6
20260508123936 8 158 0.0 0.0 0.00 0.00 0.00 93 1019.9
20260508123350 8 203 0.0 3.2 0.00 0.00 0.00 94 1019.9
20260508122731 7 180 0.0 0.0 0.00 0.00 0.00 96 1019.9
20260508122120 7 203 0.0 0.0 0.00 0.00 0.00 98 1019.9
20260508121537 7 203 0.0 0.0 0.00 0.00 0.00 99 1019.9
20260508120920 6 203 0.0 3.2 0.00 0.00 0.00 99 1019.6
20260508115710 6 180 0.0 0.0 0.00 0.00 0.00 99 1019.9
20260508115148 5 180 0.0 0.0 0.00 0.00 0.00 99 1019.6
20260508114519 5 180 1.6 1.6 0.00 0.00 0.00 99 1019.6
20260508113930 4 225 0.0 1.6 0.00 0.00 0.00 99 1019.6
20260508113316 3 270 0.0 0.0 0.00 0.00 0.00 99 1019.6
20260508112719 3 338 0.0 0.0 0.00 0.00 0.00 99 1019.6
20260508112143 3 338 0.0 0.0 0.00 0.00 0.00 99 1019.6
20260508111542 3 315 0.0 0.0 0.00 0.00 0.00 99 1019.3
20260508110922 3 293 0.0 0.0 0.00 0.00 0.00 99 1019.3
20260508110326 3 293 0.0 0.0 0.00 0.00 0.00 99 1019.3
20260508105142 3 158 0.0 0.0 0.00 0.00 0.00 99 1018.9
20260508103936 3 338 0.0 0.0 0.00 0.00 0.00 99 1018.9
20260508103338 3 293 0.0 3.2 0.00 0.00 0.00 99 1019.3
20260508102715 3 270 0.0 0.0 0.00 0.00 0.00 99 1019.3
20260508102115 3 338 0.0 0.0 0.00 0.00 0.00 99 1018.9
20260508101512 3 270 0.0 0.0 0.00 0.00 0.00 99 1018.9
20260508100938 3 270 0.0 0.0 0.00 0.00 0.00 99 1018.9
20260508100331 3 0 0.0 1.6 0.00 0.00 0.00 99 1018.9
20260508095748 3 293 0.0 0.0 0.00 0.00 0.00 99 1018.9
20260508095130 3 293 0.0 0.0 0.00 0.00 0.00 99 1018.9
20260508094522 3 270 0.0 0.0 0.00 0.00 0.00 99 1018.9
20260508093943 3 0 0.0 1.6 0.00 0.00 0.00 99 1018.9
20260508092722 3 270 0.0 0.0 0.00 0.00 0.00 99 1018.9
20260508092142 3 270 0.0 0.0 0.00 0.00 0.00 99 1018.9
20260508091528 3 203 0.0 0.0 0.00 0.00 0.00 99 1018.9
20260508090932 3 270 0.0 1.6 0.00 0.00 0.00 99 1018.6
20260508085139 2 338 0.0 0.0 0.00 0.00 0.00 99 1018.6
20260508084547 2 270 0.0 0.0 0.00 0.00 0.00 99 1018.6
20260508083912 2 270 0.0 1.6 0.00 0.00 0.00 99 1018.6
20260508083313 2 270 0.0 0.0 0.00 0.00 0.00 99 1018.6
20260508082735 2 270 0.0 0.0 0.00 0.00 0.00 99 1018.6
20260508082150 2 338 0.0 0.0 0.00 0.00 0.00 99 1018.6
20260508081537 2 293 0.0 0.0 0.00 0.00 0.00 99 1018.6
20260508080328 2 248 0.0 0.0 0.00 0.00 0.00 99 1018.6
20260508075731 2 248 0.0 0.0 0.00 0.00 0.00 99 1018.6
20260508075120 2 270 0.0 0.0 0.00 0.00 0.00 99 1018.6
20260508074529 2 270 0.0 0.0 0.00 0.00 0.00 99 1018.6
20260508073327 2 293 0.0 0.0 0.00 0.00 0.00 99 1018.6
20260508072733 2 293 0.0 0.0 0.00 0.00 0.00 99 1018.6
20260508072115 3 270 0.0 0.0 0.00 0.00 0.00 99 1018.2
20260508071537 2 293 0.0 0.0 0.00 0.00 0.00 99 1018.6
20260508070950 3 225 0.0 0.0 0.00 0.00 0.00 99 1018.2
20260508070338 3 225 0.0 1.6 0.00 0.00 0.00 99 1018.2
20260508065738 3 225 0.0 0.0 0.00 0.00 0.00 99 1018.6
20260508065133 3 248 0.0 0.0 0.00 0.00 0.00 99 1018.2
20260508064520 3 203 0.0 0.0 0.00 0.00 0.00 99 1018.6
20260508063925 3 270 0.0 0.0 0.00 0.00 0.00 99 1018.6
20260508063318 3 270 0.0 0.0 0.00 0.00 0.00 99 1018.6
20260508062742 3 270 0.0 0.0 0.00 0.00 0.00 99 1018.6
20260508062146 3 270 0.0 0.0 0.00 0.00 0.00 99 1018.6
20260508061530 3 225 0.0 0.0 0.00 0.00 0.00 99 1018.6
20260508060909 4 248 0.0 0.0 0.00 0.00 0.00 99 1018.6
20260508060341 3 248 0.0 0.0 0.00 0.00 0.00 99 1018.6
20260508055751 3 270 0.0 0.0 0.00 0.00 0.00 99 1018.6
20260508055141 3 225 0.0 0.0 0.00 0.00 0.00 99 1018.6
20260508054544 3 225 0.0 0.0 0.00 0.00 0.00 99 1018.6
20260508052737 4 203 0.0 0.0 0.00 0.00 0.00 99 1018.6
20260508052132 4 248 0.0 0.0 0.00 0.00 0.00 99 1018.6
20260508051526 4 270 0.0 0.0 0.00 0.00 0.00 99 1018.6
20260508050945 4 248 0.0 0.0 0.00 0.00 0.00 99 1018.6
20260508050309 4 225 0.0 0.0 0.00 0.00 0.00 99 1018.6
20260508045724 4 248 0.0 0.0 0.00 0.00 0.00 99 1018.2
20260508045128 4 270 0.0 0.0 0.00 0.00 0.00 99 1018.2
20260508044542 5 248 0.0 0.0 0.00 0.00 0.00 99 1018.2
20260508043936 5 225 0.0 0.0 0.00 0.00 0.00 99 1018.6
20260508043347 5 225 0.0 0.0 0.00 0.00 0.00 99 1018.2
20260508042723 5 225 0.0 0.0 0.00 0.00 0.00 99 1018.2
20260508042141 5 225 0.0 0.0 0.00 0.00 0.00 99 1018.6
20260508041532 5 203 0.0 0.0 0.00 0.00 0.00 99 1018.2
20260508040318 5 203 0.0 0.0 0.00 0.00 0.00 99 1018.2
20260508035120 5 225 0.0 1.6 0.00 0.00 0.00 99 1018.2
20260508034526 6 203 0.0 0.0 0.00 0.00 0.00 99 1018.2
20260508033916 6 180 0.0 0.0 0.00 0.00 0.00 99 1018.2
20260508033321 6 225 0.0 1.6 0.00 0.00 0.00 99 1018.2
20260508032734 6 203 1.6 3.2 0.00 0.00 0.00 99 1018.2
20260508032146 6 158 0.0 0.0 0.00 0.00 0.00 99 1018.2
20260508031526 6 158 0.0 0.0 0.00 0.00 0.00 99 1018.2
20260508030931 6 180 1.6 1.6 0.00 0.00 0.00 99 1017.9
20260508030311 6 203 0.0 1.6 0.00 0.00 0.00 99 1017.6
20260508025719 7 225 0.0 1.6 0.00 0.00 0.00 99 1017.6
20260508025114 7 203 1.6 1.6 0.00 0.00 0.00 99 1017.6
20260508024525 7 203 3.2 3.2 0.00 0.00 0.00 99 1017.6
20260508023946 7 203 1.6 3.2 0.00 0.00 0.00 99 1017.2
20260508023341 7 203 1.6 3.2 0.00 0.00 0.00 99 1017.2
20260508022723 7 203 1.6 3.2 0.00 0.00 0.00 98 1017.2
20260508021515 8 203 0.0 0.0 0.00 0.00 0.00 96 1017.2
20260508020945 8 203 0.0 0.0 0.00 0.00 0.00 96 1016.9
20260508020349 8 203 0.0 1.6 0.00 0.00 0.00 95 1016.9
20260508015738 8 203 0.0 0.0 0.00 0.00 0.00 94 1016.9
20260508015145 8 203 1.6 1.6 0.00 0.00 0.00 93 1016.9
20260508014517 8 203 1.6 1.6 0.00 0.00 0.00 91 1016.5
20260508012725 10 180 3.2 3.2 0.00 0.00 0.00 88 1016.2
20260508011528 10 203 1.6 1.6 0.00 0.00 0.00 84 1016.2
20260508010935 10 180 0.0 3.2 0.00 0.00 0.00 83 1016.2
20260508010349 11 158 1.6 1.6 0.00 0.00 0.00 81 1016.2
20260508005736 11 158 0.0 3.2 0.00 0.00 0.00 80 1015.9
20260508003908 12 203 1.6 3.2 0.00 0.00 0.00 75 1015.9
20260508003340 12 158 0.0 4.8 0.00 0.00 0.00 74 1015.5